Location: Eferding
(48.3167°N, 14.0167°E)
Time: 04:58:08
(UTC+00:00)

SeaSat 1 - Pass Details

Date: 12 November 2019
Orbit: 745 x 747 km, 108.0° (Epoch: 14 December)

Event Time Altitude Azimuth Distance (km) Brightness Sun altitude
Rises 17:03:16 0° 166° (SSE) 3,173 5.6 -15.6°
Reaches altitude 10° 17:05:35 10° 171° (S) 2,254 4.9 -16.0°
Maximum altitude 17:10:20 48° 246° (WSW) 967 3.5 -16.8°
Drops below altitude 10° 17:15:07 10° 321° (NW) 2,271 5.4 -17.6°
Sets 17:17:28 0° 327° (NNW) 3,200 6.1 -18.0°
